Regional Weather Roundup
Issued by NWS

Home | Current Version | Previous Version | Graphics & Text | Print | Product List | Glossary On
Versions: 1 2 3 4 5 6 7 8 9 10 11 12 13 14 15 16 17 18 19 20 21 22 23 24 25 26 27 28 29 30 31 32 33 34 35 36 37 38 39 40 41 42 43 44 45 46 47 48 49 50
905
ASUS43 KLOT 270303
RWRIL

ILLINOIS REGIONAL WEATHER ROUNDUP
NATIONAL WEATHER SERVICE CHICAGO/ROMEOVILLE IL
1000 PM CDT MON SEP 26 2016

NOTE: "FAIR" INDICATES FEW OR NO CLOUDS BELOW 12,000 FEET WITH NO
SIGNIFICANT WEATHER AND/OR OBSTRUCTIONS TO VISIBILITY.

* THESE STATIONS ARE NOT UNDER NWS QUALITY CONTROL. THEY ALSO MAY NOT
  REPORT WEATHER SUCH AS PRECIPITATION OR FOG.

ILZ001-002-007-009-015-016-024-270400-
NORTHWEST ILLINOIS

CITY           SKY/WX    TMP DP  RH WIND       PRES   REMARKS
MOLINE         CLEAR     56  41  57 W7        29.98S
STERLING*      CLEAR     55  41  59 SW5       29.96F
$$

ILZ003-004-008-010-011-017-018-270400-
NORTH CENTRAL ILLINOIS

CITY           SKY/WX    TMP DP  RH WIND       PRES   REMARKS
ROCKFORD       CLEAR     56  38  50 W9        29.95F
FREEPORT*      CLEAR     49  39  69 SW8       29.95F
ROCHELLE*      PTCLDY    48  40  74 SW5       29.95F
$$

ILZ005-006-012>014-019>023-270400-
NORTHEAST ILLINOIS

CITY           SKY/WX    TMP DP  RH WIND       PRES   REMARKS
CHICAGO-OHARE  CLEAR     59  35  40 SW9       29.93F
CHICAGO-MIDWAY CLEAR     61  35  37 SW9       29.94F
AURORA         CLEAR     56  38  50 SW7       29.95F
LANSING*       CLEAR     55  40  59 SW6       29.96S
WAUKEGAN       CLEAR     58  37  45 VRB6      29.89F
DUPAGE AIRPORT CLEAR     56  36  47 SW10      29.94S
KANKAKEE*      CLEAR     52  39  62 SW6       29.99F
WHEELING       CLEAR     60  34  37 SW9       29.93F
NORTHERLY ISL    N/A     64  31  29 S8          N/A
$$

LMZ740>746-270400-
SOUTHERN LAKE MICHIGAN

STATION/POSITION SKY/WX   TEMP    WIND        PRES    VSBY  WAVE
                          AIR SEA DIR/SP/G                  HT/PER
                          (F)     (DEG/KT/KT) (MB)    (MI)  (FT/S)
SOUTHERN BUOY              67 71  240/ 23/ 29 1011.0          5/ 5
WILMETTE HARBOR            63 63  270/ 12/ 14   N/A           1/ 2
HARRISON CRIB              66     250/ 15/ 16   N/A
BURNHAM HARBOR             64     200/  3/  7   N/A
CALUMET HARBOR             63     220/  5/  9 1013.9R
BURNS HARBOR               65     220/  9/ 13 1014.9R
MICHIGAN CITY              66     240/ 26/ 29   N/A
MICHIGAN CITY 6N           67 67  270/ 19/ 25   N/A           6/ 5
ST. JOSEPH                 67 64  280/ 19/ 27 1013.5S         8/ 6
$$

ILZ025>027-034>036-040-047-049-050-058-095>099-270400-
WEST-CENTRAL ILLINOIS

CITY           SKY/WX    TMP DP  RH WIND       PRES   REMARKS
QUINCY         CLEAR     54  45  71 SW6       30.06S
GALESBURG*       N/A    N/A N/A N/A MISG        N/A
MACOMB*        CLEAR     55  43  63 SW9       30.05S
$$

ILZ028>032-037-038-041>044-048-051>054-059>061-270400-
CENTRAL ILLINOIS

CITY           SKY/WX    TMP DP  RH WIND       PRES   REMARKS
BLOOMINGTON    CLEAR     59  38  45 W7        30.03S
DECATUR        CLEAR     60  39  45 SW8       30.05S
PEORIA         CLEAR     57  43  59 SW6       30.01F
SPRINGFIELD    CLEAR     55  42  61 SW3       30.06S
TAYLORVILLE    NOT AVBL
$$

ILZ033-039-045-046-055>057-062-063-270400-
EAST-CENTRAL ILLINOIS

CITY           SKY/WX    TMP DP  RH WIND       PRES   REMARKS
CHAMPAIGN      CLEAR     54  39  57 SW7       30.04S
MATTOON        CLEAR     58  40  51 SW5       30.06R
$$

ILZ079-100>102-270400-
SOUTHWEST ILLINOIS

CITY           SKY/WX    TMP DP  RH WIND       PRES   REMARKS
ALTON          CLEAR     55  46  71 VRB5      30.10R
BELLEVILLE     CLEAR     55  48  77 CALM      30.08S
CAHOKIA*       CLEAR     54  48  80 CALM      30.10S
SPARTA*        CLEAR     57  47  71 CALM      30.11S
$$

ILZ064>066-069>071-074>076-080>082-084>086-088>090-092>094-270400-
SOUTH-CENTRAL ILLINOIS

CITY           SKY/WX    TMP DP  RH WIND       PRES   REMARKS
CARBONDALE     CLEAR     53  53 100 CALM      30.11S
MT. VERNON     CLEAR     50  45  81 CALM      30.10S
CENTRALIA*     CLEAR     53  49  86 CALM      30.09S
SALEM*         CLEAR     53  48  83 CALM      30.09S
$$

ILZ067-068-072-073-078-083-087-091-270400-
SOUTHEAST ILLINOIS

CITY           SKY/WX    TMP DP  RH WIND       PRES   REMARKS
LAWRENCEVILLE  CLEAR     56  47  71 SW7       30.08R
HARRISBURG*    CLEAR     55  54  95 CALM      30.11S
ROBINSON*      CLEAR     51  45  82 SW3       30.08S
$$

ABBREVIATIONS USED IN REMARKS
   TC - TEMPERATURE IN CELSIUS
  WCI - WIND CHILL INDEX
   HX - HEAT INDEX
  VSB - VISIBILITY
$$





USA.gov is the U.S. government's official web portal to all federal, state and local government web resources and services.